Вернуться в каталог

CZ-6A DEB

АктивенPO
NORAD 54282·DEBRIS·🇨🇳 China

Запущен Nov 11, 2022 с Taiyuan Satellite Launch Center

Loading…

Ближайшие Пролёты (ближайшие 24 часа)

TLE

СвежийSource: Space-Track

Эпоха: Sep 14, 2026, 22:12 UTC

1 54282U 22151Z   26257.92559104  .00016552  00000-0  20028-2 0  9992
2 54282  98.5760 319.8395 0049774   4.9640 355.2055 14.82869870203159

Отслеживайте CZ-6A DEB в реальном времени с AllMySat

Download on the App Store